TimeCDT,TemperatureF,Dew PointF,Humidity,Sea Level PressureIn,VisibilityMPH,Wind Direction,Wind SpeedMPH,Gust SpeedMPH,PrecipitationIn,Events,Conditions,WindDirDegrees,DateUTC
12:51 AM,66.9,62.1,84,29.72,10.0,SSW,5.8,-,N/A,,Mostly Cloudy,210,2013-05-22 05:51:00
1:51 AM,66.0,62.1,87,29.70,10.0,South,6.9,-,N/A,,Mostly Cloudy,190,2013-05-22 06:51:00
2:51 AM,66.0,61.0,84,29.69,10.0,SSW,9.2,-,0.00,Rain,Light Rain,210,2013-05-22 07:51:00
3:51 AM,66.0,60.1,81,29.68,10.0,SSW,8.1,-,0.00,,Mostly Cloudy,210,2013-05-22 08:51:00
4:51 AM,64.9,59.0,81,29.65,10.0,SSW,3.5,-,N/A,,Scattered Clouds,200,2013-05-22 09:51:00
5:24 AM,64.4,60.8,88,29.70,10.0,SSW,10.4,-,N/A,,Mostly Cloudy,210,2013-05-22 10:24:00
5:51 AM,64.9,59.0,81,29.68,10.0,SW,12.7,-,N/A,,Overcast,220,2013-05-22 10:51:00
6:29 AM,64.4,59.0,83,29.72,10.0,SW,10.4,-,N/A,,Mostly Cloudy,230,2013-05-22 11:29:00
6:51 AM,64.9,60.1,84,29.70,10.0,SW,8.1,-,N/A,,Mostly Cloudy,230,2013-05-22 11:51:00
7:40 AM,66.2,60.8,83,29.73,10.0,WSW,10.4,-,N/A,,Mostly Cloudy,250,2013-05-22 12:40:00
7:46 AM,66.2,60.8,83,29.73,10.0,WSW,12.7,-,N/A,,Mostly Cloudy,240,2013-05-22 12:46:00
7:51 AM,66.0,60.1,81,29.71,10.0,WSW,10.4,-,N/A,,Mostly Cloudy,250,2013-05-22 12:51:00
8:51 AM,70.0,59.0,68,29.72,10.0,WSW,8.1,-,N/A,,Scattered Clouds,250,2013-05-22 13:51:00
9:51 AM,72.0,55.9,57,29.73,10.0,West,10.4,-,N/A,,Scattered Clouds,280,2013-05-22 14:51:00
10:51 AM,73.9,54.0,50,29.75,10.0,WSW,15.0,-,N/A,,Scattered Clouds,240,2013-05-22 15:51:00
11:51 AM,73.0,52.0,48,29.74,10.0,WSW,13.8,23.0,N/A,,Mostly Cloudy,240,2013-05-22 16:51:00
12:51 PM,75.0,53.1,46,29.74,10.0,WSW,23.0,26.5,N/A,,Mostly Cloudy,250,2013-05-22 17:51:00
1:51 PM,75.9,55.9,50,29.75,10.0,WSW,13.8,24.2,N/A,,Mostly Cloudy,240,2013-05-22 18:51:00
2:51 PM,75.9,55.0,48,29.75,10.0,WSW,16.1,24.2,N/A,,Mostly Cloudy,240,2013-05-22 19:51:00
3:51 PM,75.0,55.0,50,29.75,10.0,WSW,16.1,21.9,N/A,,Scattered Clouds,240,2013-05-22 20:51:00
4:51 PM,73.9,54.0,50,29.76,10.0,WSW,16.1,-,N/A,,Mostly Cloudy,250,2013-05-22 21:51:00
5:51 PM,73.0,54.0,51,29.77,10.0,West,19.6,-,N/A,,Mostly Cloudy,270,2013-05-22 22:51:00
6:51 PM,71.1,53.1,53,29.78,10.0,West,13.8,-,N/A,,Mostly Cloudy,270,2013-05-22 23:51:00
7:51 PM,70.0,53.1,55,29.80,10.0,West,13.8,19.6,N/A,,Mostly Cloudy,280,2013-05-23 00:51:00
8:51 PM,66.9,53.1,61,29.82,10.0,WNW,11.5,20.7,N/A,,Mostly Cloudy,290,2013-05-23 01:51:00
9:51 PM,66.9,52.0,59,29.84,10.0,West,12.7,-,N/A,,Mostly Cloudy,270,2013-05-23 02:51:00
10:51 PM,66.0,53.1,63,29.86,10.0,West,9.2,-,N/A,,Mostly Cloudy,270,2013-05-23 03:51:00
11:51 PM,64.9,52.0,63,29.86,10.0,West,13.8,-,N/A,,Mostly Cloudy,260,2013-05-23 04:51:00